星链-32674 (STARLINK-32674)

导读

STARLINK-32674是美国SpaceX公司星链星座的一颗卫星,于2024年12月29日发射入轨。星链项目旨在构建全球覆盖的低轨卫星互联网,为全球提供高速低时延的宽带接入服务。这颗卫星加入星座后,进一步扩展了星链网络的覆盖范围与服务能力,助力SpaceX实现其全球天基通信系统的建设目标,在民用通信及潜在军事领域都具备应用价值。

Basic Information
目录编号:
62434
目录名称:
STARLINK-32674
国际标识:
2024-251C
轨道中心:
EARTH
卫星名称:
星链-32674
卫星全名:
星链-32674 (STARLINK-32674)
卫星状态:
在轨 (已飞行615 天)
发射日期:
2024-12-29 UTC
国别 :
美国 (US)
星等 :
--
Orbit Information
数据来源 国际轨道数据
星历时间: 2026-09-04T15:42:51+0800
1天前
查看轨道信息
半长轴: 6840.84km
偏心率: 0.0001332
轨道倾角: 53.158°
近地点辐角 80.919°
升交点赤经 223.039°
平近点角 279.196°
近地点: 461.791km
远地点: 463.615km
周期: 93.848分钟
每日圈数: 15.344004
Detailed Information
固有亮度:
5
最大亮度:
2.5
卫星平台:
Starlink V1.0
覆盖范围:
全球
运营商:
太空探索技术公司
运营商所在国:
美国
制造商(研发单位):
太空探索技术公司
制造商所在国:
美国
使用方式:
暂无
Satellite Introduction
Starlink 计划是 SpaceX 推出的全球卫星互联网项目,通过发射低轨道卫星,为全球尤其是偏远地区提供高速、低延迟的互联网服务。自 2019 年起,Starlink 已部署数千颗卫星,旨在缩小全球数字鸿沟,推动互联网普及。该项目还为军事、航空等行业提供通信支持,带来广泛经济效益。
2D Orbit Map
3D Orbit Map
Orbit Altitude Analysis Chart
Orbit Inclination Analysis Chart
Orbit Comprehensive Analysis Chart
View Comprehensive Chart
Conjunction Data List
Event ID Objects TCA Miss Dist (km) Collision Risk Probability Collision Risk Index (CRI) Action
CDM_260905-222606-051306-243421
2026-09-05T
22:26:44+0000
2.661 km
极远距离
1.453495E-6 低风险 0.38
CDM_260906-020805-324306-243421
2026-09-06T
02:08:00+0000
2.852 km
极远距离
1.145612E-6 低风险 0.36